Probability
0 0 0 0 0 0 0 0 0 0 0 0 0 0 0 0 0 0 0 0 0 0 1 4 6 7 6 4 2 1 1 0 1 3 4 4 6 5 3 3 2 1 0 0 0 1 1 2 2
0 0 0 0 0 0 0 0 0 0 0 0 0 0 0 0 0 0 0 0 0 0 1 4 6 6 6 5 3 2 1 1 1 3 4 5 6 6 4 3 2 1 0 0 1 2 3 3 4
0 0 0 0 0 0 0 0 0 0 0 0 0 0 0 0 0 0 0 0 0 0 1 3 6 7 6 6 5 3 3 2 3 4 4 5 6 6 5 4 3 3 2 2 4 5 6 6 6
0 0 1 0 0 0 0 0 0 0 0 0 0 0 0 0 0 0 0 0 0 0 0 2 5 6 6 6 5 4 4 4 4 5 5 5 6 5 4 4 4 5 6 6 7 9 8 8 8
0 0 0 0 0 0 0 0 0 0 0 0 0 0 0 0 0 0 0 0 0 0 0 2 4 5 6 5 4 4 5 5 5 6 6 7 7 6 4 4 4 6 8 8 8 10 10 9 9
0 0 0 0 0 0 0 0 0 0 0 0 0 0 0 0 0 0 0 0 0 0 0 1 3 5 5 5 4 4 6 6 6 6 7 8 8 8 6 4 3 5 6 6 6 8 9 10 11
0 0 0 0 0 0 0 0 0 0 0 0 0 0 0 0 0 0 0 0 0 0 0 0 2 3 4 5 4 5 7 7 6 6 8 9 9 8 7 4 4 5 5 4 4 5 7 9 10
1 1 0 0 0 0 0 0 0 0 0 0 0 0 0 0 0 0 0 0 0 0 0 0 1 3 3 4 5 5 6 6 6 6 7 8 7 6 5 6 7 7 5 4 4 4 5 6 7
3 2 0 0 0 0 0 0 0 0 0 0 0 0 1 1 1 0 0 0 0 0 0 1 2 3 3 3 4 3 3 3 4 4 5 5 4 4 5 7 9 8 6 6 5 4 4 5 5
4 2 0 0 0 0 0 0 0 0 0 0 0 1 2 2 1 0 0 0 0 0 0 1 2 3 3 3 3 1 1 1 1 2 3 3 2 2 4 5 6 6 6 6 5 4 4 5 6
5 3 1 0 0 0 0 0 0 0 0 0 0 1 3 2 0 0 0 0 0 0 0 1 2 3 3 3 2 1 0 0 0 1 2 2 1 1 1 1 1 2 2 3 3 4 3 3 4
6 5 3 1 0 0 0 0 0 0 0 0 1 2 3 2 1 0 0 0 0 0 0 1 2 3 3 3 3 1 1 1 0 1 1 1 0 0 0 0 0 0 0 0 1 1 1 1 1
6 5 3 1 0 0 0 0 0 0 1 1 2 3 3 2 1 0 0 0 0 0 0 0 1 3 3 4 4 2 1 0 0 0 0 0 0 0 0 0 0 0 0 0 0 0 0 0 0
3 3 2 1 0 0 0 0 0 1 3 4 4 4 3 1 0 0 0 0 0 0 0 0 1 2 2 3 2 1 0 0 0 0 0 0 0 0 0 0 0 0 0 0 0 0 0 0 0
1 1 1 0 0 0 0 0 0 2 5 7 6 6 4 1 0 0 0 0 0 0 0 0 1 1 1 1 1 0 0 0 0 0 0 0 0 0 0 0 0 0 0 0 0 0 0 0 0
0 0 0 0 0 0 0 0 0 2 6 7 7 8 6 2 0 0 0 0 0 0 1 1 1 0 0 0 0 0 0 0 0 0 0 0 0 0 0 0 0 0 0 0 0 0 0 0 0
0 0 0 0 0 0 0 0 0 1 4 6 7 8 6 3 1 1 1 0 0 1 2 2 1 0 1 1 1 0 0 0 0 0 0 0 0 0 0 0 0 0 0 0 0 0 0 0 0
0 0 0 0 0 0 0 0 0 1 3 5 7 7 7 5 3 2 2 1 1 2 3 3 1 0 1 2 1 1 1 0 0 0 0 0 0 0 0 0 0 0 0 0 0 0 0 0 0
0 0 0 0 0 0 0 0 0 0 1 4 6 8 7 6 4 4 3 2 2 3 3 3 2 1 2 2 2 2 2 1 0 0 0 1 1 1 1 0 0 0 0 0 0 0 0 0 0
0 0 0 0 0 0 0 0 0 0 1 3 6 8 9 7 5 4 3 2 2 3 3 3 3 2 2 2 2 3 3 1 0 0 0 1 2 2 1 0 0 0 0 0 0 0 0 0 0
0 0 0 0 0 0 0 0 0 0 0 1 4 7 9 8 5 3 1 1 1 3 3 3 3 3 3 2 2 3 3 2 1 0 0 1 1 1 1 0 0 0 0 0 0 0 0 0 0
0 0 0 0 0 0 0 0 0 0 0 1 2 4 7 8 6 3 1 0 1 2 3 3 3 3 3 3 3 3 3 3 2 0 0 0 0 0 0 0 0 0 0 0 0 0 0 0 0
0 0 0 0 0 0 0 0 0 0 0 0 1 2 4 8 7 4 1 0 1 2 3 3 3 3 3 3 3 3 3 3 2 0 0 0 0 0 0 0 1 1 0 0 0 0 0 0 0
0 0 0 0 0 0 0 0 0 0 0 0 0 1 3 7 8 5 2 2 3 4 4 3 3 1 1 3 3 4 4 4 2 1 1 1 1 0 1 1 2 2 1 1 0 0 0 0 0
0 0 0 0 0 0 0 0 0 0 0 0 0 1 2 5 7 6 6 7 8 7 6 5 4 2 1 3 4 5 6 5 3 1 2 3 3 2 2 2 2 2 2 1 0 0 0 0 0
0 0 0 0 0 0 0 0 0 0 0 0 1 1 1 3 6 7 9 10 11 11 9 7 6 3 2 2 5 6 6 6 3 2 2 4 4 3 3 2 1 1 1 1 0 0 1 1 0
0 0 0 0 0 0 0 0 0 0 0 1 2 2 2 3 6 8 9 10 11 12 10 7 6 4 2 2 4 5 6 5 3 2 2 3 4 3 3 2 1 0 0 0 0 0 1 1 1
0 0 0 0 0 0 0 0 0 0 1 2 3 4 3 3 5 7 8 9 11 11 10 8 6 4 2 2 3 4 4 4 2 1 1 3 3 3 3 2 1 0 0 0 0 0 0 1 1
0 0 0 0 0 0 0 0 0 0 1 3 3 3 3 4 5 6 6 9 11 11 11 11 9 6 5 4 4 3 3 2 1 1 1 2 3 3 3 2 1 0 0 0 0 0 0 0 1
0 0 0 0 0 0 0 0 0 0 1 3 3 2 3 5 8 7 6 9 12 12 13 14 11 8 8 6 4 3 3 1 1 1 1 2 3 3 3 1 0 0 0 0 0 0 0 0 0
Wind_Speed
7 5 3 1 2 4 2 3 1 2 2 2 4 5 4 2 1 0 2 1 2 1 0 1 1 2 3 5 5 4 4 4 3 4 5 5 5 5 6 7 8 8 8 8 9 9 10 11 11
5 5 2 1 4 3 3 2 2 2 2 3 4 5 4 3 2 2 1 0 2 2 1 0 2 2 3 5 4 4 4 4 3 4 5 5 5 5 5 6 7 7 8 8 8 9 10 10 11
5 3 1 2 2 1 1 1 2 3 2 2 3 3 3 2 1 1 1 2 3 2 1 0 2 3 3 4 4 4 4 4 3 4 5 6 5 5 5 6 6 6 7 7 7 8 9 10 10
2 0 2 3 2 1 2 1 2 3 3 4 3 4 3 3 1 2 3 4 3 1 1 1 2 2 3 3 3 4 4 4 4 5 5 5 5 5 5 5 5 6 6 6 6 7 8 9 10
1 2 4 3 2 2 0 1 1 2 2 3 4 3 3 4 3 4 4 3 2 1 1 0 2 2 3 3 4 4 5 5 5 5 4 5 4 4 5 5 5 5 5 5 6 6 7 9 9
2 3 4 2 3 2 2 1 2 4 2 2 3 3 2 2 3 3 3 2 1 1 1 1 0 2 3 4 4 4 5 5 5 5 4 3 3 4 4 5 4 4 4 4 5 6 8 8 9
2 2 1 0 2 2 1 2 2 2 2 2 3 3 1 1 1 2 3 3 2 2 2 2 2 1 2 3 4 4 5 5 5 5 4 4 3 4 4 5 4 4 4 4 5 7 8 9 9
2 2 2 1 0 1 0 1 1 3 2 2 3 4 2 1 2 4 4 4 3 3 2 2 2 2 2 2 3 4 4 4 5 5 5 5 5 5 5 4 4 4 4 4 6 7 8 9 9
2 3 0 2 2 2 0 1 1 2 4 2 2 2 3 6 5 5 4 4 3 3 2 2 2 2 2 2 2 3 3 4 4 4 6 6 5 4 4 5 5 4 4 5 6 7 8 9 8
3 2 3 2 3 2 0 1 1 3 3 3 4 5 7 7 5 4 3 2 2 2 2 2 2 2 2 2 2 3 3 4 4 4 4 4 4 4 4 5 5 5 5 5 7 8 7 6 4
3 3 2 1 2 2 1 0 1 4 1 3 5 7 7 6 4 3 2 2 1 1 2 2 2 2 2 2 2 2 2 3 4 4 4 4 4 3 3 3 3 4 5 4 5 5 4 4 3
2 3 2 1 1 2 2 1 2 2 2 4 7 8 7 6 4 3 3 2 3 3 3 3 3 3 2 2 2 2 2 2 3 3 4 3 3 3 3 3 3 3 3 4 4 4 5 5 5
1 1 1 2 3 3 3 2 1 1 3 7 8 8 6 5 3 2 2 3 3 3 2 2 3 3 2 3 2 3 3 2 2 2 3 3 3 3 3 3 3 4 3 4 4 4 5 5 4
1 1 1 2 2 1 4 2 2 1 5 8 8 6 5 5 4 3 2 2 2 2 2 3 3 3 3 2 2 2 2 2 2 2 3 3 3 3 3 3 3 3 3 4 4 4 4 3 3
2 3 3 1 1 1 3 3 1 1 6 7 6 5 5 4 3 3 3 2 2 2 2 2 3 3 3 2 2 2 2 2 2 2 3 3 3 3 3 3 3 3 3 4 4 4 4 4 4
3 3 2 2 1 1 4 1 2 2 6 6 5 5 4 3 2 2 2 2 2 2 3 2 2 3 3 2 2 2 2 3 2 2 2 3 3 3 3 3 3 3 3 3 3 3 3 3 3
3 1 2 3 0 1 2 2 3 2 5 5 4 4 4 3 2 2 2 3 2 2 3 3 2 3 3 3 3 3 3 3 2 2 2 2 3 3 3 3 2 3 3 3 3 3 3 3 3
2 1 2 3 1 2 1 2 2 2 4 5 5 4 4 4 4 3 2 2 2 2 3 3 2 3 3 3 3 3 3 3 3 2 2 2 2 3 3 3 3 3 3 3 3 3 3 2 2
2 2 3 3 2 2 2 2 3 3 3 4 4 5 5 4 3 2 2 3 3 2 3 3 3 2 2 2 2 2 2 2 2 2 3 3 3 3 3 3 2 3 3 2 3 2 3 2 1
2 1 2 2 1 2 1 2 2 3 5 5 6 6 6 4 2 2 3 3 3 3 3 2 2 2 2 2 2 2 2 1 1 2 3 3 3 3 3 3 2 2 2 3 2 2 1 1 1
2 4 4 3 2 3 2 4 2 2 2 2 3 5 5 7 6 4 4 3 3 3 3 3 2 2 2 3 2 3 3 2 2 3 2 3 3 3 3 3 2 2 2 2 1 1 2 1 1
4 5 4 3 2 2 1 2 5 3 3 3 4 5 6 6 6 5 5 4 4 4 3 3 3 3 3 3 3 3 2 1 1 0 1 2 3 3 3 3 2 2 2 2 1 1 1 2 0
4 2 3 2 3 1 2 1 7 1 3 6 6 7 7 7 7 7 6 5 4 4 4 3 3 3 2 3 3 3 2 1 1 1 2 3 3 3 3 2 2 2 1 1 1 1 1 1 1
4 6 6 5 4 1 2 2 6 4 6 5 5 6 7 7 7 6 4 4 4 4 4 4 3 2 2 3 3 3 3 2 2 2 2 2 2 2 3 2 2 2 1 1 1 1 1 1 1
5 6 4 4 3 4 2 2 9 7 5 5 6 6 6 6 7 7 6 5 5 5 4 4 4 3 2 3 3 3 3 3 2 1 1 1 1 1 2 2 2 2 1 1 1 1 1 1 1
4 8 7 4 4 4 2 4 8 4 2 2 3 4 5 6 6 7 7 6 6 5 5 4 4 3 3 3 3 2 3 2 1 1 1 1 0 0 1 2 2 2 2 1 1 1 0 1 1
5 3 5 7 2 1 4 6 8 2 1 1 2 4 5 6 7 7 7 6 6 5 5 5 5 3 3 3 3 2 2 2 2 1 1 1 0 1 2 2 2 2 2 2 2 1 1 1 1
5 8 6 6 5 2 4 4 5 4 4 2 3 3 4 5 6 7 7 7 6 5 4 4 5 4 3 3 3 2 2 2 2 2 1 1 1 1 1 1 1 1 1 2 2 1 1 1 1
4 4 5 5 5 6 3 7 6 7 6 6 6 4 4 6 6 6 6 6 6 5 5 4 4 4 3 2 2 2 2 2 2 1 1 1 1 1 1 1 1 1 1 2 2 2 1 1 1
4 5 7 5 3 4 4 8 4 4 4 4 4 3 3 4 5 5 5 6 6 5 5 4 4 4 3 3 3 2 2 2 2 1 1 1 1 1 1 1 1 1 1 1 1 1 1 1 1
Wind_Direction
154 143 141 139 47 41 351 325 354 23 23 33 65 80 86 62 73 217 302 142 121 102 309 226 126 119 136 151 152 149 144 141 140 138 136 137 139 144 153 155 157 162 166 169 170 173 174 173 173
146 156 173 64 66 39 329 326 40 59 143 125 67 65 60 43 38 84 355 165 115 109 30 293 105 108 125 138 147 148 144 138 136 137 140 139 135 141 151 154 157 161 165 167 169 172 173 173 174
168 196 102 60 69 150 277 313 106 90 86 64 60 52 61 40 52 133 226 130 96 86 54 14 101 94 116 134 138 137 136 126 121 128 139 140 133 136 143 148 155 160 162 166 169 172 174 174 176
169 125 45 56 24 270 207 240 135 110 40 39 71 50 34 24 118 153 130 114 97 69 46 50 113 106 118 122 127 127 121 115 111 114 123 133 130 128 133 141 153 160 163 168 172 175 176 172 172
90 72 47 27 339 325 324 316 61 85 62 52 72 67 11 354 85 110 114 115 109 64 25 17 142 121 115 110 111 113 111 108 108 107 106 115 125 132 134 135 143 150 161 171 171 172 171 170 168
54 63 61 1 342 0 358 48 70 75 82 78 73 71 4 2 80 104 110 107 102 88 15 2 123 118 110 106 104 103 105 105 103 103 102 104 118 134 134 140 140 142 149 156 159 159 158 158 158
88 75 93 269 336 353 342 39 72 92 82 81 106 87 4 351 61 91 82 71 64 52 43 9 356 24 96 106 103 103 103 104 102 99 90 79 90 119 127 135 139 136 132 138 141 142 144 143 145
140 86 30 345 354 295 274 37 59 104 94 98 100 126 194 212 94 78 67 59 58 53 46 23 5 15 36 62 94 99 96 96 96 90 78 69 81 104 110 112 128 122 118 123 124 126 130 136 135
127 69 327 237 199 245 167 56 25 58 89 66 64 125 140 121 105 84 64 53 53 57 39 24 26 37 44 44 56 64 75 70 69 66 63 52 46 63 83 86 99 106 105 112 118 117 119 120 123
112 125 236 219 192 189 82 76 127 77 73 55 59 71 102 109 111 104 93 86 77 54 39 39 51 52 51 51 47 37 41 43 41 38 42 43 45 52 60 69 78 77 80 87 102 109 107 102 103
160 201 244 279 203 149 133 42 69 117 121 187 158 140 126 114 108 108 98 85 85 63 51 56 69 64 59 48 51 44 41 43 38 36 43 46 42 40 40 42 49 49 58 66 86 91 88 95 98
177 250 210 264 114 124 150 135 87 128 205 158 146 140 133 130 133 133 122 94 79 72 59 57 69 69 60 54 52 59 56 48 42 33 39 52 47 42 39 42 35 40 49 66 76 82 83 87 88
209 287 68 102 83 100 93 77 104 25 106 113 120 122 132 138 136 122 112 93 82 78 69 72 77 73 66 62 53 65 59 54 47 39 39 57 62 52 48 47 46 48 53 67 76 80 83 84 83
230 45 28 54 79 88 108 67 82 229 121 120 127 134 142 143 139 116 101 99 99 95 84 82 83 82 78 73 68 66 62 53 48 44 47 61 67 66 62 58 54 52 58 69 79 83 83 79 82
68 47 20 41 83 122 96 34 345 182 123 129 140 140 133 134 136 145 152 143 134 107 87 90 100 86 84 77 68 71 64 64 55 41 47 65 72 73 75 70 62 60 65 72 78 76 78 81 81
45 45 -0 306 75 84 102 257 284 147 133 143 151 150 142 142 145 152 142 130 122 107 94 88 102 100 94 84 74 70 66 68 57 46 51 68 76 78 79 76 70 69 74 76 79 74 75 73 75
34 26 288 306 28 100 114 238 266 146 148 162 165 161 157 154 159 175 155 137 133 124 113 103 90 100 101 91 78 69 65 61 54 50 51 62 73 81 85 79 76 73 74 70 79 73 82 87 78
253 239 259 251 234 117 139 252 254 178 165 174 173 171 170 178 198 186 161 138 122 108 106 107 96 88 93 88 76 64 55 45 42 43 46 61 68 80 84 79 72 77 78 68 71 76 72 85 83
186 191 249 254 198 139 196 244 246 201 181 189 186 183 185 195 189 156 152 138 117 105 109 115 111 99 101 98 94 84 62 41 40 41 47 58 66 78 88 90 82 81 87 88 88 90 79 63 77
155 189 262 299 93 124 169 279 252 206 203 200 190 191 188 177 167 173 169 153 148 145 143 138 136 128 124 115 113 113 106 75 64 42 42 48 63 75 94 99 100 98 98 87 85 90 93 58 61
223 200 217 219 25 43 59 331 284 246 224 220 196 191 186 185 188 188 181 178 160 161 163 160 155 140 122 109 95 83 62 49 43 38 30 28 53 61 70 80 89 97 111 118 104 105 122 125 46
246 226 193 165 108 321 70 298 286 247 251 229 209 193 193 193 190 189 184 181 177 174 152 143 144 136 125 122 121 122 115 103 51 44 36 30 42 52 66 77 83 90 100 108 117 108 135 141 142
213 122 116 116 124 48 15 177 285 297 254 245 220 205 199 194 192 192 188 184 169 152 142 140 133 124 124 124 132 125 111 106 78 63 57 40 32 39 50 70 83 81 83 101 101 94 113 144 164
129 74 60 50 70 13 257 183 279 242 223 231 216 206 196 192 191 186 174 154 146 138 138 138 136 127 120 122 127 128 126 116 95 67 58 39 24 24 31 53 59 63 70 70 95 111 119 132 167
93 90 42 6 12 259 259 204 253 253 231 213 210 207 197 185 180 174 170 166 159 152 152 147 147 144 137 134 136 139 140 136 137 135 115 81 38 20 10 35 46 48 49 46 53 101 116 142 163
165 140 155 191 220 275 312 242 258 272 261 213 191 187 179 179 177 177 178 171 165 158 153 154 157 156 153 150 147 137 138 137 134 131 134 144 129 5 16 44 51 47 45 44 51 50 31 78 101
140 160 155 127 132 320 289 289 305 338 360 114 152 158 177 182 174 174 170 165 165 163 165 165 155 148 154 154 139 129 134 139 135 122 111 105 58 53 59 56 49 34 37 36 46 47 30 59 79
127 140 105 116 142 232 292 284 262 269 253 219 188 193 196 180 169 168 166 166 170 169 162 155 150 151 142 139 148 144 142 149 146 126 109 89 49 45 70 68 66 49 38 47 54 40 35 67 59
104 97 104 112 146 155 229 268 232 224 217 207 210 203 191 177 172 171 165 164 162 152 150 148 145 137 135 142 129 108 97 97 106 106 114 126 116 114 104 98 79 52 40 43 51 32 36 54 46
149 156 145 148 196 168 178 262 284 230 209 186 197 190 173 167 159 159 157 155 157 157 155 157 156 150 149 143 126 114 105 92 88 111 167 146 121 101 112 89 71 42 30 35 56 28 29 44 59